Regional Weather Roundup
Issued by NWS

Home | Current Version | Previous Version | Text Only | Print | Product List | Glossary On
Versions: 1 2 3 4 5 6 7 8 9 10 11 12 13 14 15 16 17 18 19 20 21 22 23 24 25 26 27 28 29 30 31 32 33 34 35 36 37 38 39 40 41 42 43 44 45 46 47 48 49 50
597
ASUS44 KLIX 201901
RWRLA
LOUISIANA WEATHER ROUNDUP
NATIONAL WEATHER SERVICE NEW ORLEANS LA
200 PM CDT SUN APR 20 2014

NOTE: "FAIR" INDICATES FEW OR NO CLOUDS BELOW 12,000 FEET WITH NO
      SIGNIFICANT WEATHER AND/OR OBSTRUCTIONS TO VISIBILITY.
      SKY/WX - SKY CONDITION AND SIGNIFICANT WEATHER.
      TMP - AIR TEMPERATURE.    DP   - DEWPOINT TEMPERATURE.
      RH  - RELATIVE HUMIDITY.  PRES - PRESSURE.
      HX  - HEAT INDEX.         WCI  - WIND CHILL INDEX.

*  THESE STATIONS ARE NOT NWS OR FAA STATIONS AND ARE NOT UNDER
   NWS QUALITY CONTROL.

LAZ040-048-061>063-065-066-069-202000-
SOUTHEAST LOUISIANA

CITY           SKY/WX    TMP DP  RH WIND       PRES   REMARKS
N.O. AUDUBON     N/A     82  50  33 MISG        N/A
N.O. INTL ARPT MOSUNNY   79  52  38 NE8       30.15F
N.O. LAKEFRONT SUNNY     75  58  55 NW5       30.17F
N.O. DOWNTOWN* FAIR      81  54  39 NE5       30.16F
SLIDELL        SUNNY     81  51  35 VRB6      30.14F
BATON ROUGE    SUNNY     83  50  31 NE6       30.15F
BOOTHVILLE     MOSUNNY   69  59  70 NE7       30.18F
BELLE CHASSE   MOSUNNY   79  57  47 E10       30.15F
BOGALUSA*        N/A     82  49  32 NE6       30.16F
GALLIANO*      NOT AVBL
NEW ROADS*     NOT AVBL
GONZALES*      FAIR      80  51  36 CALM      30.14F
HAMMOND*       NOT AVBL
HOUMA*         MOSUNNY   81  50  34 E6        30.15S
PORT FOURCHON* CLEAR     72  59  64 VRB8      30.18F

$$

LAZ041-044-053-054-202000-
SOUTHWEST LOUISIANA

CITY           SKY/WX    TMP DP  RH WIND       PRES   REMARKS
LAKE CHARLES   SUNNY     80  54  40 S8        30.14F
LAFAYETTE      SUNNY     80  54  40 VRB6      30.15F
PATTERSON      SUNNY     81  54  39 CALM      30.18F
SALT POINT       N/A     80  62  54 VRB5      30.14F
NEW IBERIA     SUNNY     82  55  39 NW6       30.15F
CHENAULT AIRPK NOT AVBL

$$

LAZ027-028-202000-
CENTRAL LOUISIANA

CITY           SKY/WX    TMP DP  RH WIND       PRES   REMARKS
FORT POLK      CLOUDY    79  53  40 SE8G16    30.14F
ALEXANDRIA INT SUNNY     80  52  37 CALM      30.13F
ALEXANDRIA     SUNNY     83  51  33 SE7       30.14F

$$

LAZ001-002-202000-
NORTHWEST LOUISIANA

CITY           SKY/WX    TMP DP  RH WIND       PRES   REMARKS
SHREVEPORT     PTSUNNY   79  55  43 S6        30.12F
BARKSDALE AFB  MOSUNNY   80  52  38 SE10      30.13F
DTN SHREVEPORT PTSUNNY   79  57  46 SE8       30.13F

$$

LAZ014-016-202000-
NORTHEAST LOUISIANA

CITY           SKY/WX    TMP DP  RH WIND       PRES   REMARKS
MONROE         MOSUNNY   81  50  33 VRB6      30.14F
TALLULAH       SUNNY     81  52  36 NE8       30.15F

$$




USA.gov is the U.S. government's official web portal to all federal, state and local government web resources and services.